Location: Unspecified
(48.7670°N, 0.0000°E)
Time: 19:31:49
(UTC+00:00)

A-11 Canister half - Pass Details

Date: 04 July 2019
Orbit: 1526 x 1683 km, 47.3° (Epoch: 19 July)

Event Time Altitude Azimuth Distance (km) Brightness Sun altitude
Exits shadow 00:36:29 25° 186° (S) 2,823 9.7 -18.0°
Maximum altitude 00:41:05 37° 140° (SE) 2,273 9.6 -17.8°
Drops below altitude 10° 00:49:27 10° 78° (ENE) 3,737 11.3 -17.6°
Sets 00:52:45 0° 71° (ENE) 4,707 12.0 -17.5°
